User: anonymous   Login
Location: Lesignano de� Bagni
(44.6500°N, 10.3000°E)
Time: 00:02:48
(UTC+00:00)
Language:

Cosmos 1727 Rocket - Orbit

View from above orbital plane
View from above orbital plane
View from above satellite
View from above satellite

Ground track
Ground track

The orbit data is extracted from the following two-line orbital elements,

1 16511U 86008B   21129.59609215  .00000018  00000-0  31915-5 0  9991
2 16511  82.9452 245.0204 0022755 268.6827 101.6785 13.75795684771607
Epoch (UTC): 09 May 2021 14:18:22
Eccentricity: 0.0022755
inclination: 82.9452°
perigee height: 962 km
apogee height: 995 km
right ascension of ascending node: 245.0204°
argument of perigee: 268.6827°
revolutions per day: 13.75795684
mean anomaly at epoch: 101.6785°
orbit number at epoch: 77160

The dashed part of the orbit path shows where the satellite is in the earth's shadow,  

DLR